KAITUO 1B
1 40912U 15049P   19164.29875199  .00000776  00000-0  39608-4 0  9996
2 40912  97.4495 171.7237 0014608 184.9900 232.1512 15.19581910206491
TIANWANG 1C (TW-1C)
1 40926U 15051B   19164.36997891  .00009380  00000-0  13800-3 0  9991
2 40926  97.1365 210.5523 0009029  45.3926  10.5129 15.55619144209337
TIANWANG 1B (TW-1B)
1 40927U 15051C   19164.32475758  .00009110  00000-0  14193-3 0  9998
2 40927  97.1386 209.8849 0009713  54.4203  11.8832 15.54046061209181
TIANWANG 1A (TW-1A)
1 40928U 15051D   19164.35657587  .00002841  00000-0  71331-4 0  9996
2 40928  97.1453 195.7795 0013114  92.4056 323.8497 15.40737268208350
LAPAN A2
1 40931U 15052B   19164.21577604  .00000713  00000-0  10364-4 0  9992
2 40931   5.9987  95.6859 0012679  78.0188 282.1472 14.76608103200459
LQSAT
1 40958U 15057A   19164.33349998  .00000041  00000-0  14084-4 0  9999
2 40958  97.8988 233.6747 0016763 256.9347 103.0004 14.73081117198018
CHUBUSAT 2
1 41338U 16012B   19164.16904962  .00000239  00000-0  11870-4 0  9992
2 41338  31.0016 179.8663 0013768  48.3827 311.7986 15.00149831182085
CHUBUSAT 3
1 41339U 16012C   19164.33877788  .00000241  00000-0  11985-4 0  9997
2 41339  31.0083 176.8889 0013700  56.5336 303.6601 15.00325963182108
OUFTI-1
1 41458U 16025C   19163.80763469  .00000567  00000-0  33070-4 0  9994
2 41458  98.1014 250.3506 0166967  17.3894 343.2955 15.05797388171693
E-STAR-2
1 41459U 16025D   19164.35440930  .00001129  00000-0  61707-4 0  9994
2 41459  98.1011 250.5933 0168185  16.9383 343.7364 15.05447062171745
AAUSAT 4
1 41460U 16025E   19164.20395759  .00000763  00000-0  42394-4 0  9992
2 41460  98.0937 251.6579 0158041  10.2034 350.2256 15.07313087171846
NUSAT 1
1 41557U 16033B   19164.40927096  .00000893  00000-0  36234-4 0  9995
2 41557  97.4178 251.9395 0012661 322.2771  37.7579 15.27192889169280
BEESAT 4
1 41619U 16040W   19164.12787175  .00001147  00000-0  51509-4 0  9998
2 41619  97.3678 226.4553 0012609  49.6085 310.6250 15.23106580153018
PRATHAM
1 41783U 16059A   19163.71758804  .00000030  00000-0  14954-4 0  9994
2 41783  98.0677 223.4313 0034465  44.7441 315.6532 14.62994742144671
ALSAT 1N
1 41789U 16059G   19164.18968654  .00000043  00000-0  17201-4 0  9990
2 41789  98.0700 225.8747 0029140  33.4559 326.8478 14.64243444144840
NAYIF 1
1 42017U 17008BX  19163.85963718  .00001247  00000-0  52046-4 0  9992
2 42017  97.4034 231.0138 0006296 173.8859 186.2457 15.25504307129035
MAX VALIER SAT
1 42778U 17036P   19163.74305518  .00000728  00000-0  34875-4 0  9996
2 42778  97.3548 221.5408 0010807 241.2329 118.7822 15.21999132109334
